User: anonymous   Login
Location: ??
(35.5052°N, 139.7262°E)
Time: 18:44:31
(UTC+00:00)
Language:

Tsikada Rocket - Orbit

View from above orbital plane
View from above orbital plane
View from above satellite
View from above satellite

Ground track
Ground track

The orbit data is extracted from the following two-line orbital elements,

1 23466U 95002D   21262.91229081  .00000041  00000-0  27123-4 0  9996
2 23466  82.9284 191.4796 0034327 183.3011 243.4008 13.74452112336732
Epoch (UTC): 19 September 2021 21:53:41
Eccentricity: 0.0034327
inclination: 82.9284°
perigee height: 958 km
apogee height: 1009 km
right ascension of ascending node: 191.4796°
argument of perigee: 183.3011°
revolutions per day: 13.74452112
mean anomaly at epoch: 243.4008°
orbit number at epoch: 33673

The dashed part of the orbit path shows where the satellite is in the earth's shadow,  

DLR